Погода в Нелькане

Погода в Нелькане : погода сейчас, прогноз погоды и архив. Всё, что Вы хотите узнать о погоде в Нелькане!

Поиск расширенной информации на нашем сайте:

Другие новости

Новости СМИ2

Главная страница сайта

Новости сайта

03.07.2017

Напоминаем, что на нашем специализированном сайте Метеоцентр.Азия вы можете получить высокодетализированные автоматические прогнозы погоды по пунктам России, СНГ и мира в авиационном формате (включающие направление и скорость ветра, видимость, явления погоды, количество и форму облачности, нижнюю и верхнюю границу облачности).

Рекомендуем: полировка кузова автомобиля

Погода в Нелькане - сегодня

Время (UTC), дата Ветер
(°,м/с) 
Видим.   Явления Облачность Т
(°С)
Тd
(°С)
f(%) Тe
(°С)
Pmin
(гПа)
dP
(гПа)
Po
(мм)
O2
(г/м3)
Тmin Tmax R s Состояние
почвы
09 15.09.17 320 (СЗ) 20000 м    6/0 средняя 
[Ac trans]
+15.3 +6.7 56 +17  1009.3  0.5  729  277    +20.5       
12 15.09.17 тихо ()   20000 м    6/0 средняя 
[Ac trans]
+11.4 +7.5 77 +11  1010.3  0.6  730  281           
15 15.09.17 тихо ()   20000 м    3/0 верхняя 
[Ci sp]
+6.4 +4.8 89 +6  1011.4  0.2  730  286           
18 15.09.17 тихо ()   10 км  слаб. дождь  10/0 средняя 
[As op]
+5.6 +4.4 92 +6  1011.7  0.1  730  287           
21 15.09.17 360 (С) 10 км  слаб. дождь  10/0 средняя 
[As op]
+6 +5.1 94 +6  1011.8  0.3  730  287  +5.6      мокрая 
03 16.09.17 360 (С) 20000 м    6/0 средняя, верхняя 
[Ac trans|Ci sp]
+11.6 +6.8 72 +12  1009  -1.4  729  280           
06 16.09.17 020 (С) 20000 м    8/0 средняя 
[Ac trans]
+16.3 +8 58 +18  1006.8  -1.5  728  275           
12 16.09.17 тихо ()   20000 м    6/0 верхняя 
[Ci sp]
+11.2 +9.4 89 +12  1002.1  -1.1  726  279           
15 16.09.17 360 (С) 20000 м    3/0 верхняя 
[Ci sp]
+8.2 +7.1 93 +9  1004.2  -1.2  725  282           
18 16.09.17 тихо ()   20000 м    ясно 
+7.4 +6.5 94 +7  1004.3  -0.1  725  283           
03 17.09.17 тихо ()   20000 м    10/0 средняя 
[As op]
+13.3 +7.6 68 +13  1004.9  -0.3  726  278           
06 17.09.17 360 (С) 20000 м    10/0 средняя 
[As op]
+14.4 +7.8 65 +16  1005.2  0.3  726  277           
12 17.09.17 290 (З) 10 км  слаб. дождь  10/0 средняя 
[As op]
+10.8 +9.8 94 +14  1007.6  728  280           
15 17.09.17 320 (СЗ) 10 км  {дождь}  10/0 средняя 
[As op]
+10 +9.2 95 +12  1008  0.3  728  281           
18 17.09.17 320 (СЗ) 20000 м  {дождь}  10/0 средняя 
[As op]
+7.5 +6 90 +8  1009.2  0.8  728  285           
03 18.09.17 360 (С) 20000 м    5/0 средняя 
[Ac trans]
+12 +3.7 57 +12  1009  -0.7  729  281           
06 18.09.17 020 (С) 20000 м    5/0 средняя 
[Ac trans]
+16.2 +6.4 52 +18  1007.2  -1.2  728  276           
12 18.09.17 340 (С) 20000 м    10/0 средняя 
[As op]
+13.1 +6.7 65 +14  1007.4  -0.1  728  279           
15 18.09.17 340 (С) 20000 м    10/0 средняя 
[As op]
+11.6 +3.2 56 +11  1007.5  728  281           
18 18.09.17 360 (С) 20000 м    10/0 средняя 
[As op]
+9.7 +2.4 60 +9  1007.6  -0.2  727  283           
21 18.09.17 340 (С) 20000 м    10/0 средняя 
[As op]
+9.6 +2.3 60 +10  1006.8  -0.9  727  282  +9.6        сухая 
00 19.09.17 340 (С) 20000 м    10/0 средняя 
[As op]
+10.1 +3.2 62 +10  1006.2  -0.4  726  282  +9.6         
03 19.09.17 340 (С) 20000 м    10/0 средняя 
[As op]
+10.4 +6.8 78 +12  1005.5  -0.6  726  281           
06 19.09.17 320 (СЗ) 20000 м  {дождь}  10/0 средняя 
[As op]
+11.4 +8.8 84 +13  1005  -0.4  726  279           
09 19.09.17 тихо ()   20000 м    10/0 средняя 
[As op]
+12.2 +10.3 88 +14  1004.7  -0.1  726  278    +12.2  0.6     
Время (UTC), дата Ветер
(°,м/с) 
Видим.   Явления Облачность Т
(°С)
Тd
(°С)
f(%) Тe
(°С)
Pmin
(гПа)
dP
(гПа)
Po
(мм)
O2
(г/м3)
Тmin Tmax R s Состояние
почвы

Для получения пояснительной информации подведите курсор к названию столбца.

ПОГОДА в Нелькане - архив

Всё, что Вы хотите узнать о погоде в Нелькане - удобно и подробно!

Выберите нужную дату (начиная с 1 января 2015* года) и нажмите кнопку "Найти".
Будут отображены архивные сводки погоды по пункту Нелькан, начиная с указанной даты.


Отображать данные в формате CSV (для использования в таблицах Excel)


Внимание! Наш архив погоды предназначен исключительно для личного некоммерческого использования в познавательных целях. Если Вам необходимы официальные справки о состоянии погоды (для производственных, юридических, коммерческих и т.п. целей), обращайтесь в органы Росгидромета.

*Примечание: данная дата относится к архиву по метеостанциям СССР (Россия, СНГ, Балтия).
Архив по метеостанциям Зарубежной Европы и Азии (кроме Китая) хранится 10 дней, по другим регионам земного шара (Китай, Африка, Америка, Австралия, Океания) - 1 день.

Нелькан - район местоположения метеостанции


Название, широта, долгота, высота метеостанции:
Нелькан 57.7°ш. 136.2°д. 305 м над ур. моря [Российская Федерация]

Дополнительная информация

В oтличие oт бoльшинства пoгoдных сайтoв мы публикуем пoдрoбную метеoинфoрмацию в детальнoм прoфессиoнальнoм фoрмате.

Характеристики температуры и влажнoсти вoздуха измеряются на высoте 2 м в тени вдали oт зданий и деревьев.
Скoрoсть ветра измеряется на высoте 10 м (на урoвне рoста челoвека скoрoсть ветра ниже в 1.5-2 раза). Если метеoстанция нахoдится в гoрoде или в лесу, тo скoрoсть ветра занижена на 2-4 м/с пo сравнению с oткрытым местoм. Скoрoсть ветра над акватoриями крупных рек и oзёр, а также на вершинах хoлмoв на 2-5 м/с выше, чем в oбычных услoвиях.
Атмoсфернoе давление в разных тoчках местнoсти мoжет значительнo oтличаться oт давления на метеoстанции, в зависимoсти oт услoвий рельефа (при пoдъёме на 10 м давление пoнижается примернo на 1 мм рт.ст.).